Theta_e
314 315 314 313 314 315 317 316 313 312 313 314 313 313 313 312 312 312 312 313 312 312 313 314 314 314 314 314 316 317 323 337 341 342 344 345 345 344 344 343 342 342 341 339 336 337 338 336 334 332 332 332 332 333 334 334 335 335 336 336 337 337 337 336 335 334 334 335 334 335 337 337 336 336 335 334 333 332 332 331 330 329 330 331 332 332
314 314 314 312 314 316 319 321 319 317 315 314 314 313 313 312 312 313 313 314 313 313 313 314 313 313 314 315 315 314 325 341 342 343 345 345 346 344 344 343 340 340 339 336 335 337 337 334 332 330 330 331 332 332 333 333 334 334 335 336 336 336 337 336 336 336 336 335 335 336 337 337 336 336 335 334 332 331 330 331 330 329 329 330 331 331
313 314 313 312 314 317 318 320 321 320 319 317 314 314 315 314 313 315 317 318 316 315 316 315 312 313 314 314 317 314 321 339 342 342 344 345 346 344 342 341 340 339 337 335 335 337 336 333 331 330 330 331 332 331 332 332 333 334 334 335 335 335 336 335 335 335 335 335 336 337 336 336 336 335 335 333 331 330 329 329 329 328 329 329 329 330
314 313 312 312 313 316 318 318 319 320 320 320 318 316 315 314 313 315 320 320 317 317 317 315 313 314 315 313 316 315 320 338 342 341 343 344 345 344 342 339 339 338 335 335 337 337 336 333 331 331 330 330 331 331 331 332 333 332 332 334 334 334 335 335 335 335 335 335 335 335 335 334 333 333 333 332 331 330 329 328 327 326 327 328 329 329
312 311 311 313 314 315 316 317 319 320 319 321 321 317 314 314 314 316 320 320 320 322 321 316 311 314 322 318 316 318 323 337 343 341 344 345 344 343 340 338 338 336 334 335 338 337 336 334 332 331 329 329 330 330 332 333 332 332 332 333 333 334 336 336 335 335 335 335 333 332 332 331 330 330 330 330 330 329 329 328 327 327 327 328 329 328
311 312 313 313 314 314 314 316 318 320 320 320 323 321 316 316 319 319 320 319 318 321 324 317 307 315 333 328 318 321 326 334 342 344 344 345 344 342 340 338 337 334 333 335 337 336 336 334 332 330 329 329 329 330 332 332 332 332 332 332 333 334 336 336 334 334 334 334 331 330 330 329 327 328 328 328 328 327 328 328 327 326 326 328 329 328
310 312 313 314 315 313 313 314 314 319 320 319 327 327 320 318 320 321 319 317 316 319 324 324 317 319 331 330 325 325 323 329 338 342 342 344 343 341 339 337 335 334 335 336 336 335 335 334 332 330 330 330 330 331 331 332 331 332 332 332 333 335 336 335 334 334 333 332 330 329 329 327 326 326 326 327 327 327 327 327 326 325 325 326 326 325
311 313 313 315 316 314 314 313 314 320 318 322 333 328 319 317 319 320 317 314 318 321 324 330 330 322 322 329 331 325 320 327 334 338 341 344 342 340 338 335 335 334 335 336 335 335 334 334 332 331 331 330 331 332 332 332 332 332 333 333 333 334 333 334 334 333 331 330 329 328 328 327 325 325 326 328 328 326 326 327 326 325 325 324 324 324
315 314 313 314 315 315 314 313 316 318 317 326 334 324 318 318 318 320 316 314 319 319 321 331 330 319 325 339 335 324 321 328 336 340 342 345 341 338 337 335 334 333 333 335 335 334 334 333 333 332 332 331 331 333 333 333 333 333 333 333 332 332 331 333 333 331 330 329 328 328 327 325 324 325 327 328 327 326 326 327 326 325 324 324 324 325
316 314 313 313 314 315 315 314 316 318 320 325 325 319 318 316 316 317 313 314 318 315 319 332 328 316 327 344 336 324 321 327 339 344 342 343 339 337 337 334 333 333 333 334 333 333 332 333 334 332 332 331 331 333 333 333 333 333 333 332 332 331 331 332 331 329 328 328 328 327 325 324 324 325 325 326 326 325 325 325 325 325 324 324 325 326
312 313 314 313 313 316 318 317 315 317 320 320 319 316 313 315 317 317 318 317 316 319 326 334 329 315 323 338 335 326 323 331 341 344 341 341 338 337 335 333 333 333 332 333 331 330 332 333 333 332 332 331 331 332 333 334 334 333 333 333 332 331 331 331 330 329 327 327 327 325 324 323 323 323 323 324 324 323 324 325 325 324 324 325 326 325
313 311 314 315 315 316 317 318 315 316 316 315 316 313 313 322 323 322 324 316 313 325 335 334 326 316 320 330 333 330 329 335 342 343 342 340 338 337 334 333 333 332 331 331 330 330 331 332 332 332 332 331 330 331 332 334 334 334 334 333 333 332 331 331 330 328 327 326 325 323 323 323 323 323 323 324 322 322 324 325 324 324 324 324 325 325
318 315 314 315 318 316 315 317 316 316 315 312 315 314 314 320 322 325 328 320 319 328 331 329 321 317 324 328 328 331 330 334 340 341 340 338 337 336 333 332 331 330 330 330 330 331 332 332 331 331 332 331 331 331 333 334 334 334 334 333 333 333 331 331 330 328 326 325 323 322 324 323 323 323 323 322 322 323 324 325 324 324 323 323 324 324
317 318 315 313 316 316 316 317 315 317 317 312 314 315 317 320 319 324 328 323 322 322 323 327 318 316 331 333 327 331 333 335 339 339 337 336 334 334 332 331 331 329 329 329 329 331 332 332 331 330 332 332 332 332 333 333 333 333 332 331 332 332 331 330 330 328 326 325 325 325 325 324 323 323 322 322 323 325 325 325 324 324 324 323 322 323
316 318 320 316 315 316 316 316 315 320 320 316 316 316 319 327 325 323 326 324 321 322 324 323 314 319 335 338 331 332 334 335 336 336 335 333 333 333 331 331 330 329 329 328 329 331 331 331 330 331 332 333 333 333 333 333 333 331 330 330 330 330 330 330 330 328 326 326 328 327 325 324 324 323 322 322 324 324 324 324 324 324 324 323 322 322
313 318 325 318 314 317 315 315 315 315 318 318 318 315 315 324 327 325 328 331 328 326 324 321 320 326 333 335 333 333 335 335 335 335 334 333 333 333 333 331 330 329 328 328 329 330 331 331 331 331 332 333 333 332 332 332 331 330 329 330 329 329 329 329 328 327 326 328 328 327 325 324 323 322 321 323 324 323 323 324 324 324 322 320 321 321
311 319 324 316 315 316 313 316 315 311 321 324 316 315 316 320 324 322 324 329 326 322 324 328 330 329 330 332 332 333 336 336 336 335 334 334 334 334 333 331 330 329 329 329 329 330 330 330 331 331 332 333 332 332 332 330 329 329 329 329 328 328 328 327 326 327 327 329 328 325 324 323 322 321 321 322 324 323 324 325 324 323 321 321 322 322
315 317 322 316 314 317 313 314 315 312 321 323 315 316 318 316 321 328 329 329 324 323 329 334 331 329 334 336 332 334 338 337 337 336 334 334 334 333 333 331 330 330 329 329 329 329 330 330 330 330 331 332 332 331 331 330 329 329 329 329 328 327 327 326 326 326 328 329 326 323 323 322 321 321 321 322 323 324 325 325 323 322 321 321 320 320
318 315 325 323 315 319 319 316 321 320 316 316 315 319 319 319 324 327 327 327 324 323 325 329 331 332 334 334 331 334 338 338 336 335 334 334 333 333 333 332 331 330 330 330 330 329 329 328 329 330 331 332 332 331 331 330 330 329 328 328 328 328 327 326 326 327 328 329 325 322 322 322 321 322 322 323 323 323 324 324 323 321 320 319 318 317
319 314 325 330 319 319 324 323 322 323 321 318 319 319 322 332 334 325 323 328 331 329 324 326 332 334 335 333 332 333 334 336 336 334 334 334 332 333 334 333 332 331 330 330 329 330 328 327 329 330 330 331 331 331 331 330 331 330 329 328 328 329 328 327 328 328 329 329 325 323 323 322 322 323 323 323 323 322 323 323 322 319 319 318 316 314
320 315 323 334 324 317 326 327 318 317 322 320 320 320 320 325 326 322 323 326 329 334 332 328 328 331 333 331 330 332 332 332 334 334 334 334 332 332 332 331 331 330 329 329 328 327 326 326 328 329 329 330 330 330 330 330 330 330 330 330 329 329 329 329 329 329 330 329 325 323 323 322 323 324 324 323 322 322 323 322 321 319 318 317 315 314
321 322 329 334 324 317 325 325 316 316 319 319 321 323 322 323 323 322 324 325 329 336 336 333 332 330 330 329 328 331 330 328 331 333 333 333 331 330 329 329 329 329 328 328 327 327 326 326 327 328 328 328 328 328 327 327 328 328 328 329 329 330 330 330 330 329 329 328 326 325 324 323 323 323 323 322 322 322 322 322 321 319 318 316 314 315
326 325 325 326 322 319 319 317 316 317 317 320 322 321 325 330 330 330 332 331 330 330 329 335 339 332 327 328 328 328 327 326 328 330 332 332 330 329 329 327 327 328 328 328 327 327 326 326 326 326 326 325 326 325 325 325 324 325 325 326 328 329 328 326 326 325 326 326 325 325 324 323 323 323 322 322 321 322 322 321 320 319 318 316 315 316
328 323 321 329 335 333 323 316 317 317 318 323 324 323 326 326 325 331 337 335 328 325 327 333 338 332 327 328 328 327 327 326 326 328 330 330 328 327 327 326 326 326 326 326 326 325 325 325 325 325 324 324 324 324 324 324 323 323 324 323 326 328 327 325 324 323 324 324 324 324 323 323 322 322 321 321 321 321 321 321 320 319 318 317 316 316
328 328 327 334 337 334 326 320 319 319 320 323 324 325 325 326 330 330 331 333 329 325 328 332 333 330 327 328 328 327 328 327 327 327 327 328 327 325 326 326 326 326 326 325 325 324 324 324 324 324 324 323 323 323 323 323 322 323 323 322 324 325 325 325 325 324 324 325 325 324 323 323 322 321 321 321 320 320 321 321 320 319 319 317 317 316
332 332 329 333 335 331 328 328 326 325 325 323 324 326 325 328 333 328 328 337 331 323 328 332 331 330 328 327 328 327 328 328 327 326 325 326 325 324 325 326 325 325 325 324 323 323 322 323 322 323 323 322 322 322 323 323 322 323 323 323 323 323 324 324 324 325 324 324 325 325 324 323 322 321 321 321 320 320 321 321 320 319 319 318 317 316
331 330 326 330 334 332 332 329 324 326 329 326 324 326 327 327 329 331 337 339 330 327 332 330 329 332 330 328 328 327 327 328 326 325 326 326 325 324 324 324 323 323 322 322 322 322 322 322 321 322 322 322 322 322 323 323 323 324 323 323 323 323 323 324 324 324 324 323 324 325 325 323 322 322 322 321 321 321 320 320 320 319 318 318 318 317
333 331 326 326 326 324 325 323 318 320 325 324 324 326 329 331 333 336 336 329 324 330 333 328 328 332 330 329 328 326 326 327 326 326 326 324 323 322 320 318 317 316 315 315 316 317 317 317 316 316 315 316 319 321 322 322 322 323 323 322 322 323 323 324 324 324 323 323 323 324 324 323 323 323 322 322 322 321 321 320 320 319 318 318 319 317
332 328 322 325 327 320 318 320 319 318 318 320 324 327 328 331 334 334 329 324 325 331 331 328 328 329 328 328 327 325 325 324 322 321 319 317 316 315 313 312 311 310 310 310 310 311 311 310 310 309 308 308 311 315 319 321 322 322 322 322 322 322 322 323 324 324 323 323 323 323 323 323 323 322 321 322 322 321 321 321 320 319 319 320 321 318
328 325 320 324 327 320 318 321 319 317 319 320 321 322 323 326 327 327 325 322 322 324 324 323 323 321 320 321 320 319 318 316 313 312 310 310 310 310 309 308 307 307 308 307 307 307 306 306 306 305 305 305 306 308 313 318 321 321 321 322 322 322 322 322 323 323 322 323 323 323 322 322 323 322 321 322 321 320 320 321 321 321 320 321 322 320
325 323 320 324 328 322 321 323 319 317 320 320 318 318 320 323 323 324 324 323 323 321 318 319 321 318 315 314 312 312 311 310 308 308 307 307 307 307 306 306 306 306 306 305 305 304 304 304 304 304 304 304 305 305 307 312 318 321 322 322 321 322 322 322 322 321 321 322 322 322 322 323 323 323 322 322 322 320 319 320 321 322 322 321 321 321
328 324 321 325 328 323 320 322 320 318 321 322 319 317 319 322 323 324 325 324 324 321 318 320 321 318 315 313 309 308 308 308 307 306 306 305 305 305 305 304 305 304 304 303 302 302 302 303 303 303 303 303 304 305 305 308 313 317 318 316 315 317 319 319 319 319 320 321 321 321 322 322 323 323 323 323 323 322 320 320 320 321 322 323 323 322
332 330 325 326 327 323 321 321 321 323 326 325 319 315 315 320 324 325 324 322 321 321 321 322 319 313 313 312 308 306 306 305 305 305 304 304 304 304 304 303 303 303 303 302 302 301 301 301 301 302 302 303 303 304 305 306 308 309 309 307 307 309 310 309 309 310 311 314 318 320 321 321 322 322 323 322 322 322 322 321 320 322 323 323 323 323
327 329 327 326 327 324 321 320 322 325 325 321 317 313 313 319 323 323 321 319 318 318 318 316 312 309 309 307 305 304 304 303 304 303 303 303 303 303 303 303 303 302 302 302 301 301 301 301 301 301 302 302 302 303 304 305 305 305 305 305 305 305 305 304 304 304 304 306 310 313 315 317 319 321 321 321 320 321 321 321 321 322 322 322 323 323
324 327 326 325 325 323 320 322 324 324 320 318 315 311 311 315 317 316 315 313 312 313 312 311 309 308 306 305 303 303 302 302 303 303 303 303 303 303 303 304 304 303 303 302 302 302 301 301 301 301 301 301 302 302 303 304 305 305 304 304 304 304 304 304 304 303 304 304 305 306 307 309 311 313 314 315 316 317 319 320 320 320 320 321 321 321
325 327 325 323 323 322 322 324 323 319 316 317 316 311 310 313 315 315 316 313 310 310 310 309 308 306 305 304 304 303 303 304 303 304 304 304 304 304 304 304 305 304 303 302 302 301 301 301 301 301 301 301 302 302 303 303 304 304 304 304 303 303 303 303 303 303 303 303 303 303 304 304 305 305 306 307 308 309 312 314 316 317 318 319 320 320
324 325 324 323 321 321 322 321 319 317 316 318 316 311 309 311 312 315 316 313 310 309 307 306 306 305 304 304 304 304 306 306 305 305 305 304 304 304 304 304 304 304 303 303 302 301 301 301 301 301 301 301 302 302 302 303 303 303 303 303 302 302 302 302 301 301 302 302 302 302 302 303 303 303 304 304 305 305 305 307 307 308 310 311 313 314
317 320 323 322 319 320 321 318 318 320 318 315 314 312 310 311 311 312 315 314 310 307 305 304 305 305 304 305 305 306 308 309 307 305 305 304 303 303 304 303 303 303 303 303 303 302 301 301 301 301 301 302 301 302 302 302 302 302 301 301 301 301 301 300 300 300 300 300 301 301 301 302 302 302 303 303 303 303 304 304 304 304 305 305 306 307
313 315 321 324 321 321 322 320 319 320 316 314 314 313 312 312 312 313 317 317 311 305 304 304 304 304 305 305 306 307 309 309 306 305 304 304 303 303 302 302 301 301 301 302 302 301 301 300 300 300 301 301 301 301 301 301 301 301 300 300 300 300 300 300 300 300 300 300 300 300 300 301 301 301 301 301 302 302 302 303 303 303 303 304 304 305
315 317 321 323 321 319 319 318 316 316 314 312 312 313 311 310 311 314 319 319 311 306 305 304 304 305 305 306 307 308 308 307 305 303 303 302 302 302 301 300 300 299 300 301 301 300 301 300 300 300 300 300 300 300 300 300 300 300 299 299 299 299 299 299 300 300 300 300 300 300 300 300 300 300 300 300 301 301 301 301 302 302 303 303 303 303
318 317 318 319 318 317 316 316 314 313 313 310 309 309 309 309 312 316 318 316 310 307 306 305 305 306 306 307 307 306 305 305 303 303 303 302 302 302 300 299 299 299 300 301 300 300 301 300 300 300 300 300 300 300 300 299 299 299 299 299 299 299 299 299 299 299 299 299 299 299 300 300 300 300 300 300 300 300 300 301 301 301 302 302 302 302
316 316 316 316 316 315 315 314 313 313 310 306 306 308 309 312 316 316 313 311 309 307 307 307 306 307 307 306 305 304 303 303 302 302 303 302 302 301 299 298 298 299 300 300 300 300 300 300 300 300 299 299 299 299 299 299 299 299 298 298 298 298 298 299 299 299 299 299 299 299 299 299 299 299 299 299 299 299 300 300 300 300 301 301 301 301
312 315 316 314 313 314 315 313 314 314 309 305 307 310 310 312 314 311 307 307 307 305 305 305 305 304 304 303 302 302 301 301 301 301 301 300 300 299 299 298 298 299 299 300 300 300 299 299 299 299 299 299 299 299 299 299 298 298 298 298 298 298 298 298 298 298 298 298 298 298 298 298 298 298 298 298 298 299 299 299 299 299 300 300 300 300
311 315 316 313 311 313 314 312 310 309 305 303 307 309 308 307 307 306 305 304 304 304 303 303 302 302 301 301 300 301 300 300 300 300 300 301 300 298 298 298 299 299 299 299 299 299 299 299 298 298 299 299 299 299 299 298 298 298 298 297 297 298 297 297 298 298 298 297 297 297 298 297 298 298 297 297 298 298 298 298 298 298 298 298 298 298
310 311 312 310 308 309 310 308 305 304 303 302 304 304 304 304 304 304 304 303 303 303 302 302 302 301 301 300 300 301 300 300 300 300 301 302 300 298 298 298 299 299 299 299 299 299 299 299 298 299 298 298 299 299 298 298 298 298 297 297 297 297 296 296 297 297 297 297 297 297 297 297 297 297 297 297 296 296 296 296 296 296 297 297 297 297
307 308 308 308 306 305 306 304 303 303 303 302 303 303 303 303 303 302 303 303 303 303 302 302 302 301 301 301 301 301 301 300 301 301 301 301 300 298 298 299 298 299 299 298 298 298 298 298 298 298 298 298 298 298 298 298 298 297 297 297 296 296 296 296 296 296 296 297 297 297 297 296 296 296 296 296 296 296 295 295 295 295 295 296 296 296
308 310 309 309 307 307 307 304 302 303 302 301 302 302 301 302 301 302 302 302 302 302 302 302 302 302 302 301 301 301 301 301 301 301 301 302 300 298 298 298 298 298 298 298 298 298 298 298 298 298 298 298 298 298 298 298 297 297 297 297 296 296 296 295 296 296 296 296 296 296 296 296 296 296 296 296 296 296 295 295 295 295 295 295 295 295
307 309 309 309 309 308 307 304 302 302 302 301 302 301 301 301 301 300 301 301 301 301 301 301 301 302 301 301 301 301 302 302 302 302 302 301 300 299 299 298 298 299 299 298 298 298 298 298 298 298 298 298 298 298 298 297 297 297 297 297 296 296 296 295 295 295 295 296 296 296 296 296 296 296 296 296 296 296 296 296 296 296 295 295 295 295
308 309 308 308 307 306 304 303 303 303 302 301 302 301 300 301 300 300 301 300 300 300 300 300 299 299 299 299 299 300 302 302 300 300 301 300 298 298 298 298 298 299 298 298 298 298 298 298 298 298 298 298 298 297 297 298 298 297 297 297 296 296 296 296 295 295 295 296 296 296 296 296 296 296 296 296 296 296 296 296 296 296 296 295 296 296
309 309 307 307 307 307 306 304 305 306 304 301 302 302 301 300 300 300 301 300 300 300 300 300 299 298 298 298 297 298 301 300 298 297 298 297 296 296 298 298 298 298 298 298 298 298 298 298 298 298 298 298 297 297 297 298 298 297 297 297 296 296 296 296 295 295 295 296 296 296 296 296 296 296 296 296 295 295 295 295 295 295 295 296 295 295
308 307 309 310 309 309 309 306 306 307 305 302 303 303 302 301 301 301 300 300 300 299 299 299 301 300 299 298 296 297 298 297 296 295 295 295 295 296 297 297 297 298 298 298 298 298 298 298 298 298 298 298 298 297 297 298 298 297 297 297 297 297 297 296 296 296 296 296 296 297 296 296 296 296 295 295 294 294 294 294 294 294 295 295 294 294
Wind_Speed
4 3 5 7 6 5 6 7 7 5 4 6 6 5 5 5 6 7 8 7 3 3 7 10 10 13 15 12 13 7 6 12 14 12 10 10 11 11 11 12 12 10 10 10 13 18 21 25 26 28 30 29 27 26 26 27 28 26 26 28 30 30 29 28 27 25 23 22 21 21 19 17 15 14 13 12 11 11 10 9 8 6 6 7 6 5
3 6 8 7 7 8 9 8 7 6 7 7 6 6 7 5 8 10 8 7 3 4 8 10 10 14 15 12 14 8 8 10 16 17 14 13 12 11 13 13 12 10 8 8 12 16 23 27 28 29 30 32 33 32 32 32 31 27 26 29 31 30 30 31 31 30 28 26 25 23 20 19 18 17 15 14 13 12 10 8 6 6 6 7 7 6
2 6 10 10 9 8 9 8 7 7 7 7 5 5 6 5 7 9 7 6 3 4 8 9 10 14 15 13 14 9 8 8 16 20 18 17 14 12 14 14 14 12 8 7 9 13 22 27 28 29 30 33 36 36 34 33 32 29 28 29 30 31 30 30 31 30 29 27 26 24 21 20 19 18 17 15 14 12 10 8 5 5 6 7 8 8
3 7 11 11 8 7 8 8 6 6 5 5 5 4 6 6 4 6 5 5 4 4 7 8 8 10 10 8 11 7 5 8 14 20 18 17 17 16 16 15 15 14 11 9 9 10 17 24 26 27 28 29 31 31 31 33 31 29 30 31 32 31 31 30 29 28 27 26 23 21 20 20 19 18 18 17 15 14 12 9 6 6 6 8 9 9
9 12 6 6 7 8 9 9 6 5 4 5 7 7 8 7 6 7 7 6 7 6 4 4 5 6 5 5 9 4 4 8 11 16 14 11 12 13 13 12 10 11 11 11 11 10 12 17 22 26 28 26 27 30 34 35 32 30 31 33 33 32 31 30 29 27 25 23 21 21 23 23 22 21 21 20 18 16 13 10 7 6 7 8 9 8
13 14 4 6 9 9 8 9 7 6 4 6 7 10 10 8 7 8 7 5 6 7 3 5 5 5 4 3 8 4 4 9 9 12 14 10 11 12 11 10 9 10 10 10 11 10 11 14 20 25 26 25 26 30 35 35 33 32 32 34 33 32 31 30 28 25 22 22 23 27 29 27 25 23 22 22 20 17 15 12 10 8 9 10 10 8
9 9 5 8 9 9 9 9 8 8 5 6 6 9 10 6 5 7 6 3 1 4 4 4 6 3 4 2 5 2 6 10 9 9 12 12 12 12 10 10 10 12 10 9 10 10 10 12 17 21 23 25 27 30 33 33 32 31 32 35 33 31 31 30 27 23 22 23 26 29 30 28 26 23 21 21 19 17 16 14 12 12 12 11 10 9
7 9 7 8 9 8 7 7 9 9 7 6 6 7 6 3 5 6 6 3 2 5 5 3 4 3 2 3 4 2 8 10 10 9 9 10 12 11 11 11 13 14 12 11 11 10 11 14 19 21 22 25 29 31 32 33 32 31 33 35 33 30 31 29 26 23 24 25 27 29 29 27 25 22 22 22 20 18 16 15 13 12 12 9 8 9
5 8 9 9 8 6 6 10 11 9 7 7 7 7 5 5 7 5 5 5 3 2 6 6 3 3 2 5 3 3 8 9 9 12 12 12 13 13 13 14 15 15 14 14 13 12 13 18 25 29 28 27 31 34 34 35 34 32 33 34 32 32 32 29 26 25 25 26 28 29 29 26 24 23 23 23 21 19 18 16 14 11 10 9 10 11
4 8 10 8 7 6 9 14 11 10 8 7 6 5 2 3 5 4 5 3 2 1 5 6 2 3 3 6 4 4 4 6 6 8 12 13 13 13 13 15 16 14 13 14 14 13 16 22 25 28 30 30 35 38 38 38 36 33 33 33 32 33 33 29 27 27 27 28 29 30 29 27 25 24 25 24 22 20 19 17 14 11 11 11 11 12
8 8 7 5 6 8 9 9 9 12 10 4 3 2 2 2 1 2 3 2 2 2 7 7 2 4 1 5 3 1 1 8 9 7 10 12 13 14 13 15 16 14 13 13 12 11 16 22 22 24 26 28 32 35 36 37 36 35 34 32 32 33 32 30 29 29 29 30 30 29 28 28 27 27 28 27 23 21 20 19 17 14 13 13 13 12
8 7 6 5 7 6 6 5 4 5 5 3 3 2 1 4 4 3 3 3 4 4 7 6 4 6 1 4 4 5 3 10 16 14 15 14 13 14 13 13 14 13 12 11 10 9 11 14 16 19 22 25 29 31 33 34 34 34 33 30 30 32 31 31 30 30 29 30 29 28 28 28 29 29 29 27 24 22 21 21 20 18 16 15 14 14
6 6 6 5 5 4 5 4 3 4 2 3 1 3 3 2 2 2 3 0 3 4 6 5 4 4 3 4 4 9 7 8 16 16 18 18 16 15 13 13 12 11 12 10 9 9 9 9 12 17 21 24 27 29 31 32 31 32 31 30 30 31 31 31 31 29 29 29 28 28 29 29 29 29 27 26 24 23 22 22 20 17 16 15 15 15
5 6 5 3 3 2 6 4 2 3 0 3 3 4 4 2 1 1 3 1 1 4 6 4 2 1 2 2 6 10 5 8 14 12 13 15 15 15 13 13 12 11 11 10 10 12 11 10 12 17 20 22 23 25 27 28 29 29 29 30 29 28 29 30 29 28 28 27 26 26 28 29 29 27 26 25 24 23 23 21 19 17 15 13 13 14
2 5 4 3 3 2 5 6 6 4 3 3 4 5 5 4 4 2 3 2 2 3 4 3 1 1 1 2 7 6 6 8 13 14 13 11 10 11 11 11 12 11 11 10 10 12 12 12 14 16 18 19 20 22 24 25 25 25 26 28 27 26 26 28 27 26 27 25 23 26 29 28 27 26 24 24 23 22 21 19 18 17 15 13 12 13
4 5 7 5 4 5 6 6 6 6 0 4 2 5 3 5 5 2 2 5 4 1 2 1 1 1 2 1 6 6 10 9 10 13 15 14 11 9 8 9 10 9 10 10 10 10 10 12 14 15 16 17 18 21 21 21 22 21 23 26 25 24 26 27 26 26 26 23 23 26 28 27 26 24 24 23 21 19 19 19 18 17 15 14 14 13
2 5 7 4 2 6 8 6 5 6 3 2 1 3 4 4 7 3 1 0 3 2 2 0 2 2 2 4 8 7 12 10 9 10 12 13 13 11 9 8 8 8 9 9 8 8 8 11 14 15 16 15 17 20 20 19 19 20 21 23 23 21 23 24 22 23 23 21 22 26 28 27 26 23 22 22 20 18 19 19 18 17 17 17 15 13
3 5 7 4 4 6 5 3 1 4 6 3 1 4 2 2 4 3 1 2 4 2 4 2 4 1 2 1 6 4 11 8 6 9 9 9 9 8 7 7 7 6 6 6 6 6 7 10 12 12 13 13 13 16 17 16 16 18 19 21 21 19 20 21 20 21 20 18 21 27 28 27 24 21 21 21 19 18 19 20 19 19 19 17 15 13
3 3 8 4 3 5 1 4 3 5 1 4 3 2 3 2 0 1 2 1 2 2 2 4 2 0 2 3 4 2 9 9 7 8 9 8 7 6 6 7 7 4 4 5 4 4 4 5 7 7 7 6 7 9 11 12 12 14 15 16 16 16 17 18 18 20 19 19 23 27 27 25 21 20 20 19 18 18 19 20 20 20 19 17 15 14
1 2 6 6 2 1 4 5 2 5 6 2 2 2 2 3 3 2 2 3 3 3 1 2 2 1 1 2 5 4 5 9 10 9 8 7 6 5 6 6 6 4 2 2 3 4 4 4 3 2 2 4 4 6 7 8 8 9 10 12 12 12 14 15 17 19 19 22 26 27 25 22 20 21 20 17 18 18 18 20 21 20 20 18 16 16
2 2 4 6 5 2 1 1 3 3 4 4 4 3 2 1 2 2 1 2 4 4 3 2 1 3 3 3 3 1 2 2 9 11 8 6 5 4 4 4 4 4 4 5 6 7 7 9 10 10 9 10 9 9 8 7 7 7 8 11 11 11 13 15 17 19 21 25 28 27 24 22 21 21 20 18 18 18 19 21 22 20 19 18 17 18
1 1 3 3 3 2 3 3 6 10 7 4 2 0 1 2 4 3 1 2 2 4 4 5 3 4 3 3 2 5 6 4 3 7 7 6 6 6 6 6 5 5 6 6 6 6 6 8 12 14 14 14 14 14 13 12 11 9 11 14 14 14 13 13 16 18 21 25 25 23 23 21 20 20 20 20 18 18 21 23 22 20 19 18 18 19
1 3 2 2 3 3 4 4 9 11 9 7 4 2 1 1 3 4 3 3 1 3 2 3 3 3 4 3 4 8 8 7 6 1 7 7 7 8 8 8 7 6 6 6 5 4 5 9 13 15 16 16 16 18 19 19 19 18 15 15 16 15 11 7 8 9 10 15 18 21 23 22 21 21 22 21 19 20 22 23 22 20 19 18 19 18
0 3 2 2 3 3 1 3 8 8 8 6 4 4 3 2 1 4 5 3 3 3 1 3 2 2 4 3 4 7 8 6 7 3 7 8 6 8 9 8 8 7 7 7 6 5 8 12 15 15 14 14 15 17 19 19 20 20 17 14 16 15 9 9 14 15 15 16 17 18 21 22 22 24 23 20 19 20 21 22 21 20 18 17 18 18
1 0 1 2 3 4 3 1 4 6 6 4 2 4 5 5 3 1 2 3 2 3 4 5 2 2 2 1 4 5 8 8 5 5 5 7 6 8 8 8 8 7 8 8 7 8 10 11 13 13 12 13 13 14 14 15 16 17 16 15 14 13 9 10 14 13 11 14 16 17 18 18 19 21 21 19 18 18 19 20 19 18 17 16 17 17
1 1 2 4 3 2 2 3 2 2 4 3 2 5 6 8 7 2 2 4 1 2 3 5 3 2 2 4 7 6 8 10 5 5 5 6 7 7 7 7 8 8 9 9 8 9 8 8 10 11 11 11 13 15 15 16 18 18 16 15 12 10 9 9 13 15 14 15 19 21 21 19 18 17 17 18 18 17 17 18 17 16 15 15 16 17
3 1 2 3 4 4 4 5 4 3 5 4 3 7 7 6 6 5 3 3 2 1 4 3 6 8 5 5 7 6 7 9 5 3 5 6 7 8 7 8 9 8 8 8 8 8 8 9 9 9 8 8 11 14 14 15 16 15 15 16 13 10 9 9 11 14 14 16 19 22 23 23 20 17 15 15 17 18 18 18 16 14 15 15 15 16
4 3 3 2 1 3 4 5 3 4 6 6 5 6 7 6 8 7 3 1 3 5 3 2 9 11 7 6 8 7 6 7 5 4 5 5 6 8 8 10 12 11 10 10 9 9 9 10 8 9 10 11 14 16 14 14 14 13 13 15 14 12 11 11 11 11 12 14 18 20 21 21 19 19 16 15 17 19 18 17 16 14 16 15 14 15
5 1 4 3 5 8 5 1 5 7 6 6 6 6 6 7 9 8 3 2 2 4 4 7 9 8 5 7 8 6 5 6 6 6 7 8 9 9 11 13 11 10 11 12 11 9 8 8 8 10 14 17 19 19 17 16 15 14 14 14 14 14 13 11 10 10 10 12 15 18 20 19 19 20 17 15 16 17 16 16 15 15 16 14 13 14
4 1 3 2 4 9 11 8 3 8 10 8 8 6 5 8 10 9 7 7 8 8 7 10 10 7 3 3 5 6 6 7 8 9 9 10 10 11 12 12 11 10 10 11 10 8 8 9 10 14 18 20 22 21 20 18 16 15 15 15 15 15 13 11 11 11 12 12 12 15 16 17 18 18 16 14 15 16 15 13 12 12 12 12 11 11
2 2 2 3 3 6 10 10 5 9 14 11 10 10 8 6 7 7 7 8 10 9 7 9 9 5 4 4 5 7 6 8 10 10 9 8 8 11 12 11 11 11 10 9 8 7 7 10 13 16 19 21 22 23 22 20 19 18 18 17 16 14 12 11 12 12 11 9 8 9 9 11 12 12 12 13 13 14 14 11 9 8 7 7 8 9
3 1 2 4 4 3 5 7 5 6 12 10 11 12 11 5 4 3 2 4 7 8 8 6 5 3 2 3 6 8 8 11 12 10 9 8 7 10 12 10 10 10 8 8 8 8 8 10 13 16 18 20 23 24 24 25 25 25 24 22 21 20 18 18 18 17 13 10 6 6 6 6 6 6 7 8 9 10 11 10 9 7 5 4 5 7
2 3 1 3 3 1 4 6 5 2 6 6 7 9 9 3 3 4 3 4 5 8 8 5 3 2 2 3 7 9 10 11 10 8 7 7 8 10 11 10 10 9 7 7 8 8 9 10 14 17 18 20 22 23 24 29 30 29 27 27 28 28 28 28 28 27 25 21 15 10 8 6 5 5 5 5 6 7 9 10 10 8 6 4 2 3
3 5 3 2 3 1 5 6 3 4 4 2 3 6 6 2 4 7 6 5 5 5 5 6 7 7 6 6 7 8 9 9 8 8 7 7 7 9 10 9 9 8 7 7 8 8 9 13 18 20 21 20 19 21 26 30 30 29 28 28 29 30 30 30 31 32 32 30 27 22 18 14 11 8 7 5 4 4 4 6 8 7 5 5 5 5
4 4 3 2 3 2 2 4 4 2 1 0 2 6 6 5 7 11 10 7 6 8 10 11 10 10 9 7 6 7 8 9 9 8 8 7 6 7 8 8 7 7 7 7 8 9 11 15 20 22 23 22 20 22 27 29 29 30 29 29 29 29 29 30 30 31 32 31 30 28 26 24 22 19 16 13 10 8 5 3 2 3 3 5 7 9
5 3 3 2 2 2 2 3 2 2 2 3 4 6 6 5 6 9 9 7 5 6 10 11 11 10 10 9 7 6 8 9 10 8 7 7 6 5 6 6 6 7 7 8 10 13 16 19 20 20 22 24 25 25 26 27 29 30 29 29 29 29 29 30 30 30 30 29 29 28 27 26 25 24 22 20 19 18 15 12 9 7 5 6 8 10
4 4 3 2 1 2 3 2 2 1 2 3 4 4 2 1 2 1 4 3 5 4 6 11 12 10 10 9 7 7 8 9 9 6 6 6 6 6 6 6 6 8 9 11 15 16 18 20 19 19 21 24 25 24 24 25 28 29 29 29 29 29 29 30 30 29 28 27 27 26 25 24 23 23 22 20 20 20 19 16 14 12 10 7 7 8
4 3 3 3 2 2 4 3 2 1 1 1 2 4 2 3 5 2 3 2 2 3 6 10 12 11 10 9 8 7 6 8 6 2 2 4 4 4 5 6 7 8 9 11 13 14 15 17 19 20 23 26 26 24 24 25 26 29 29 28 28 30 30 29 28 27 26 26 24 24 24 23 21 21 21 21 20 19 18 16 14 13 12 10 10 11
8 4 3 4 3 2 4 3 1 2 2 3 4 5 4 5 6 2 4 1 1 5 7 10 12 11 10 10 8 6 4 5 4 2 1 3 3 4 5 6 7 8 9 10 13 15 16 18 21 23 25 27 25 23 24 26 27 29 29 28 28 29 29 27 26 25 24 23 21 21 21 21 21 21 21 21 20 19 18 17 15 14 13 13 14 14
8 5 4 4 3 3 3 2 1 1 1 3 5 5 5 5 2 3 2 3 4 7 7 9 12 11 9 8 5 2 3 5 5 5 5 5 4 5 6 7 9 11 12 12 14 18 19 21 23 25 25 25 24 22 24 26 29 30 28 27 29 29 27 25 23 22 21 20 19 19 19 19 20 20 20 20 19 18 18 17 17 16 16 16 16 16
4 3 3 3 3 3 3 3 1 0 2 3 4 6 6 4 0 3 4 4 5 8 6 7 10 9 6 4 3 2 4 6 8 8 7 6 4 4 7 9 13 15 15 14 16 20 22 23 24 24 24 23 23 23 24 26 29 29 27 27 28 27 24 22 20 19 18 18 18 18 18 18 18 18 18 18 18 17 17 17 17 17 17 17 17 17
2 3 3 2 2 2 2 3 1 0 2 5 7 6 4 1 2 3 2 0 5 7 6 5 6 6 5 5 6 7 7 9 10 8 7 6 5 5 8 11 15 16 16 16 18 20 22 22 23 23 23 22 23 23 23 25 28 28 27 28 27 23 20 19 18 17 17 17 17 17 16 16 15 15 15 15 15 15 14 15 15 15 16 16 17 17
1 2 2 1 1 2 3 3 2 1 3 8 8 4 3 1 3 2 2 4 5 6 7 6 4 6 9 8 8 9 10 10 10 8 8 7 7 9 11 13 14 15 16 17 18 19 21 22 22 23 22 21 21 21 21 23 26 26 26 26 23 19 17 17 16 15 15 15 15 15 15 14 13 13 13 13 13 12 12 12 12 12 14 15 15 15
2 1 1 1 1 1 2 2 1 1 5 8 4 2 2 2 1 4 5 5 5 5 6 7 6 7 10 11 10 10 10 10 9 9 8 7 7 9 12 13 15 15 16 17 17 18 21 21 20 21 21 19 19 19 19 20 22 23 22 20 17 16 16 15 14 13 14 14 14 13 13 12 12 12 13 13 12 12 12 13 13 13 13 14 15 15
2 3 5 2 2 3 3 2 1 1 3 5 5 4 4 4 5 7 8 7 5 5 5 7 8 8 8 10 10 9 8 8 8 8 8 7 7 9 11 12 13 13 14 17 18 19 20 20 19 19 18 18 18 17 17 17 18 19 18 16 15 17 16 13 11 11 12 13 13 12 12 12 12 13 13 13 14 14 14 15 15 14 14 15 16 16
1 4 5 4 4 5 5 3 2 2 4 6 6 5 6 6 6 7 9 8 6 5 6 7 8 8 7 8 9 8 7 7 7 7 7 6 7 9 12 11 11 13 15 17 18 18 18 18 18 17 16 16 16 16 15 15 15 15 14 13 13 15 15 12 10 10 11 12 12 12 13 14 14 14 14 14 14 15 15 15 15 15 15 15 16 17
1 3 4 4 3 3 4 2 2 3 4 5 6 6 7 8 7 7 7 7 6 7 8 8 8 8 8 8 8 7 6 7 7 7 6 5 6 8 11 11 12 14 17 16 15 16 16 16 16 14 14 15 14 13 13 13 13 13 12 12 12 14 14 12 11 11 11 11 12 13 14 15 15 14 15 15 15 15 15 15 15 15 15 16 16 17
2 3 4 3 3 3 3 3 3 4 4 4 5 5 5 7 7 7 6 7 7 8 8 8 8 7 6 6 7 7 6 6 6 7 5 4 6 7 9 12 15 17 16 14 14 14 13 14 13 12 12 12 12 11 10 10 11 12 12 13 14 15 15 14 13 12 12 11 12 13 13 14 15 15 16 16 15 15 15 15 15 15 15 15 15 16
2 3 3 3 4 5 4 4 5 5 5 5 4 4 4 5 7 7 7 7 8 8 8 8 8 8 8 8 7 8 7 6 6 7 6 4 5 7 7 11 15 17 15 13 12 12 11 11 10 9 9 10 10 9 8 7 9 12 13 14 16 16 15 15 14 13 12 12 13 14 14 15 16 16 16 16 16 16 15 15 15 15 15 14 13 14
3 3 2 4 5 3 3 4 5 4 3 1 2 4 4 5 7 7 6 6 7 7 7 7 8 9 10 12 12 10 7 5 7 10 8 6 9 11 9 8 11 13 15 15 12 11 10 9 7 7 6 6 7 8 7 6 8 11 12 13 15 15 14 13 13 12 12 12 13 13 14 15 16 16 16 17 18 18 18 17 15 15 15 14 14 14
3 3 3 4 4 4 5 6 5 5 4 5 5 5 4 4 6 7 6 6 6 6 7 8 7 7 8 10 14 15 10 7 11 13 10 9 11 12 12 9 6 8 12 13 12 11 10 8 6 5 4 3 5 8 7 5 6 10 11 12 13 13 12 11 11 11 11 11 11 11 12 13 14 16 17 17 17 18 18 18 17 16 15 14 15 17
Wind_Direction
151 193 243 225 226 222 228 230 221 234 235 249 277 268 258 265 269 267 266 269 209 195 252 237 227 234 234 236 238 232 113 126 141 145 155 155 153 158 156 156 156 153 168 156 117 118 124 119 115 110 116 132 141 156 170 176 182 177 169 167 164 164 168 171 174 177 181 180 180 184 184 185 183 179 176 169 160 153 149 140 127 128 138 142 144 146
144 201 239 226 217 217 225 230 223 232 242 248 260 268 275 265 266 271 267 272 214 177 255 237 220 238 231 227 237 206 122 137 149 153 167 164 159 160 152 150 150 154 164 132 108 123 123 114 114 117 128 142 150 165 179 182 184 180 174 172 170 169 170 173 175 178 180 179 180 182 181 181 182 183 181 173 162 151 145 144 135 134 136 135 140 139
224 231 241 230 215 213 230 234 218 224 237 242 248 262 274 264 271 279 267 263 201 171 267 241 208 235 231 222 237 211 149 161 163 162 169 163 158 160 153 149 154 158 151 120 111 124 125 121 122 129 140 149 156 170 180 182 184 182 179 177 175 175 175 176 176 176 176 177 179 179 180 182 181 183 183 173 163 156 149 147 146 147 142 132 132 127
240 248 235 224 209 205 237 246 227 234 245 238 239 250 261 256 267 286 284 287 272 225 246 229 205 233 236 230 247 233 149 163 171 168 167 163 160 160 158 156 157 154 137 121 122 128 132 130 129 135 145 150 155 166 176 182 184 183 181 181 180 179 178 177 174 173 172 172 177 179 179 177 169 167 171 166 163 160 152 148 147 142 135 132 130 122
237 250 219 187 204 205 228 249 235 230 255 244 228 227 245 249 239 253 278 307 318 297 244 168 179 242 257 231 248 277 105 149 170 164 158 152 149 147 146 144 139 136 132 131 133 138 141 136 134 141 147 150 156 165 176 183 184 184 182 182 183 182 179 176 172 171 172 173 174 169 163 159 152 148 152 153 154 156 152 150 157 158 155 150 141 130
244 251 181 167 215 209 217 245 228 195 230 259 236 221 221 224 229 251 285 332 354 324 306 111 143 249 299 227 234 289 91 142 164 159 150 139 140 141 134 128 116 114 126 133 133 140 144 135 135 143 150 154 161 170 177 182 185 185 184 182 184 184 178 175 173 172 175 178 172 161 154 151 148 147 150 152 152 155 153 148 149 151 155 155 149 140
245 245 185 192 216 210 215 242 228 181 197 254 236 210 195 189 235 273 302 340 16 281 282 102 136 221 318 305 225 250 104 135 156 153 146 145 147 144 132 126 120 122 132 131 127 135 139 134 136 144 155 160 165 171 176 182 185 185 184 184 187 185 178 175 174 175 180 180 171 163 159 155 154 152 153 156 154 153 153 150 143 135 136 143 146 144
231 236 217 204 211 213 212 240 227 177 176 242 235 205 190 202 258 275 290 282 233 264 301 10 104 122 313 273 225 152 98 121 147 146 141 144 141 133 126 124 126 134 137 128 130 144 145 149 154 157 163 166 166 169 175 180 184 184 183 185 188 183 177 177 176 177 180 177 171 166 162 160 159 156 156 159 155 149 151 151 143 135 134 136 140 144
222 222 227 209 204 212 210 230 222 175 186 239 223 206 211 233 245 255 271 274 281 305 307 316 40 86 273 273 298 52 88 116 146 147 145 144 138 132 127 127 131 136 138 139 150 160 159 168 171 166 164 167 167 169 174 178 184 185 182 184 186 181 178 178 175 175 176 175 173 168 163 160 159 158 159 160 154 150 152 151 148 149 146 137 137 145
247 226 232 211 195 206 219 230 210 172 205 234 203 197 214 227 242 255 250 256 347 324 263 279 359 83 276 287 330 18 85 130 141 141 145 142 136 133 130 132 138 140 145 154 162 167 172 179 178 166 162 167 170 172 174 177 183 187 185 184 185 181 179 177 174 173 172 173 173 168 164 160 158 159 159 158 155 154 156 154 154 159 160 153 146 148
261 259 251 219 208 205 206 218 194 182 202 201 150 183 280 292 329 301 257 135 101 256 253 251 198 122 285 293 285 305 149 141 131 130 142 138 131 134 136 140 146 149 156 164 168 176 183 181 175 164 161 168 172 175 176 178 184 188 189 186 183 181 179 174 174 174 172 172 172 169 165 161 158 157 156 156 156 158 158 154 149 147 150 157 160 157
279 273 258 233 223 196 175 211 208 188 187 146 126 124 280 312 15 13 331 73 130 245 259 237 166 118 149 272 273 294 268 152 144 149 152 144 138 140 142 145 150 154 160 168 172 181 187 179 169 165 167 171 175 178 179 180 185 189 192 189 183 181 179 175 174 175 174 174 173 171 167 162 159 158 157 158 158 160 160 154 147 141 137 142 155 162
292 261 253 252 231 157 141 223 296 2 43 130 143 90 105 289 355 0 302 198 180 240 256 232 142 114 214 244 306 321 305 166 153 155 153 147 145 146 147 149 153 158 162 170 175 178 185 183 175 175 176 176 178 181 182 182 186 189 192 191 185 182 180 178 177 176 175 174 173 172 169 165 163 161 161 161 159 160 161 158 155 152 144 138 144 155
291 289 288 276 265 139 128 168 268 327 3 158 180 141 140 180 123 280 270 279 236 239 263 265 154 186 268 303 329 334 341 141 139 131 133 140 145 146 148 150 154 162 166 174 181 178 182 189 187 184 181 179 180 182 183 184 187 188 191 192 188 185 183 182 181 178 175 175 176 176 174 170 167 166 166 164 160 160 162 161 162 163 163 155 147 151
228 294 283 214 243 213 151 174 185 176 178 201 191 146 149 163 151 209 229 193 229 247 292 310 150 169 165 286 310 350 48 103 120 114 117 128 135 137 142 150 157 167 174 182 188 181 178 186 190 187 182 180 180 182 185 186 188 187 188 188 187 186 186 184 183 180 177 176 178 179 177 175 172 170 167 162 160 163 163 163 163 165 169 170 160 156
180 244 253 230 216 193 191 204 167 127 160 249 166 109 169 190 156 160 180 172 179 161 336 347 106 327 146 273 327 53 79 77 99 112 123 134 142 143 148 158 164 174 184 187 188 182 177 183 191 190 185 181 179 183 188 187 186 185 184 186 187 187 187 185 183 182 179 177 179 180 178 177 175 169 163 160 160 164 167 166 165 163 162 163 160 156
180 249 277 298 276 212 201 207 167 142 170 256 102 153 214 181 133 127 246 167 89 118 276 9 104 329 43 17 347 52 87 81 94 113 127 142 152 155 158 166 173 185 192 189 182 176 176 184 191 192 189 183 176 182 190 187 182 181 181 185 186 186 185 184 183 181 178 178 181 180 179 178 172 163 159 159 160 165 169 169 167 162 158 158 161 164
199 253 285 293 293 266 210 181 215 179 151 127 203 211 205 68 90 111 150 14 51 147 265 10 119 184 78 44 311 49 94 94 107 124 133 146 154 155 159 168 175 183 185 183 176 171 178 189 193 192 193 189 177 178 184 182 178 178 181 186 186 184 182 183 184 180 179 183 183 179 177 174 166 157 155 158 162 167 170 170 167 162 160 159 162 170
188 238 287 277 266 290 346 67 2 313 289 153 196 190 117 101 278 85 125 130 102 156 283 352 51 51 102 158 250 181 125 127 126 130 142 154 159 156 160 165 163 157 165 172 163 151 159 182 190 191 194 190 170 167 172 171 170 173 178 181 182 181 180 180 180 176 178 186 183 176 172 167 158 152 154 158 164 170 170 169 167 163 162 161 162 169
144 174 280 292 277 310 14 50 49 319 323 357 22 5 90 138 162 171 152 154 149 151 232 335 26 315 246 214 239 230 149 138 142 145 153 160 163 157 152 152 148 139 139 134 90 65 49 55 79 94 56 57 89 129 148 149 151 160 169 172 172 174 174 175 176 176 179 184 181 174 167 161 154 153 156 161 168 172 170 167 168 166 163 162 163 167
28 141 240 293 321 41 27 310 115 73 2 7 37 15 331 56 111 144 162 132 130 137 169 168 179 256 268 286 260 222 38 152 155 147 145 144 134 123 110 102 102 84 65 56 56 54 46 45 46 44 47 57 76 95 104 108 117 133 151 153 152 162 172 176 177 178 179 181 178 171 162 157 156 155 159 166 170 172 169 167 169 168 164 163 165 167
3 137 194 287 330 92 181 216 103 90 80 62 66 69 243 163 125 126 245 285 108 128 161 157 176 257 280 323 356 65 35 319 203 143 131 116 99 90 76 69 68 65 68 70 70 75 76 63 51 49 56 65 72 76 76 81 84 96 126 138 141 152 167 178 181 181 182 179 172 161 155 153 154 155 161 168 170 169 169 169 169 166 163 164 167 170
159 107 114 264 254 182 174 140 102 96 91 75 50 354 14 103 109 127 190 241 91 98 118 115 124 259 289 341 49 69 46 348 312 149 114 99 88 84 75 68 64 60 68 70 61 65 83 80 69 61 62 66 70 73 74 77 76 77 101 132 145 147 137 122 124 129 145 148 141 142 148 148 151 158 165 172 173 171 169 169 168 166 164 165 169 173
42 71 41 296 295 307 285 101 83 73 72 64 17 351 18 1 202 156 170 178 144 143 125 88 109 241 285 345 64 85 71 32 334 335 102 98 85 81 78 76 74 68 63 55 46 53 65 69 68 65 64 68 75 80 81 82 81 78 90 122 152 162 148 110 103 90 82 95 109 129 142 144 151 161 167 173 176 173 170 168 168 167 165 166 170 174
281 53 51 47 18 348 318 319 46 53 68 75 330 339 11 9 4 114 120 86 114 194 150 126 159 236 274 5 82 94 91 78 4 342 80 93 85 80 78 82 84 82 76 64 56 64 65 65 68 69 75 82 87 92 92 93 95 94 97 115 145 165 162 136 133 129 115 117 130 139 142 146 155 159 163 171 175 172 169 168 168 169 168 168 171 174
137 172 103 99 129 176 215 224 205 108 92 87 346 359 18 19 19 25 106 82 82 265 85 104 156 160 96 98 111 112 102 94 56 8 53 77 86 88 84 87 87 86 90 87 80 78 75 74 75 77 89 103 106 104 106 108 112 116 116 116 128 146 145 137 145 149 137 131 140 147 151 157 161 160 164 173 173 171 173 171 171 173 173 173 174 177
99 100 81 121 160 181 196 210 209 139 102 107 58 28 26 19 28 55 86 86 141 114 42 63 141 128 111 104 108 109 102 97 87 69 81 84 91 94 91 89 85 78 79 79 80 83 78 72 69 71 81 93 94 95 104 113 117 124 122 113 114 125 129 129 143 149 141 131 137 149 156 158 164 174 179 176 171 170 173 174 175 180 180 181 184 186
95 40 0 22 323 281 224 195 153 107 110 126 116 66 45 37 44 56 49 329 151 117 74 150 137 124 131 127 115 119 118 112 120 123 106 91 86 90 88 84 81 78 74 66 60 64 70 69 64 62 62 61 66 74 83 91 95 100 104 104 107 109 108 115 130 143 146 139 139 151 158 160 172 186 186 179 172 169 171 175 179 183 183 187 195 198
102 35 332 7 4 341 332 50 94 101 101 98 106 98 82 75 73 74 42 331 130 123 140 148 124 109 119 120 116 127 125 113 112 102 93 88 86 87 86 83 77 75 77 75 66 58 64 71 67 61 56 52 55 62 67 71 76 81 85 90 96 98 102 112 120 125 133 135 140 153 161 169 182 188 184 180 175 169 169 176 181 187 191 196 203 205
104 72 333 29 40 10 5 357 27 101 95 72 61 54 60 85 93 90 78 71 74 75 99 117 104 79 49 57 85 94 93 96 94 85 82 87 92 90 86 82 76 68 70 75 76 70 66 69 65 60 57 52 51 55 61 67 73 76 76 80 86 93 104 116 119 123 129 131 142 155 164 173 180 181 179 178 175 174 174 174 176 184 195 205 212 214
57 78 340 44 60 21 13 352 348 98 96 74 45 22 13 54 87 89 98 97 80 67 78 94 89 66 7 6 60 77 83 88 82 77 76 76 84 89 85 80 77 74 68 66 71 70 61 62 61 58 56 54 53 56 59 64 70 72 71 71 72 77 91 103 105 112 119 120 130 143 156 170 174 176 179 177 173 176 180 179 173 169 183 202 207 206
35 46 353 55 62 356 4 342 319 95 89 64 34 8 348 0 92 100 121 122 118 119 114 97 90 90 354 10 57 60 67 76 71 68 73 64 63 78 79 73 67 65 59 53 53 51 46 51 55 54 55 56 57 59 62 67 70 70 70 68 66 69 75 78 80 82 85 86 93 108 121 139 150 159 176 182 183 188 193 194 186 174 174 190 198 199
117 113 70 69 93 315 330 315 295 49 66 44 16 348 321 296 119 89 56 61 101 130 137 141 138 100 37 47 69 59 55 62 58 55 65 64 61 66 65 62 61 58 53 49 51 51 46 48 49 47 49 54 58 61 68 73 74 73 74 73 72 73 73 71 70 69 66 65 68 74 81 88 106 121 130 150 173 188 199 204 202 196 194 195 212 232
114 121 131 102 118 195 305 321 349 49 58 52 357 337 316 300 92 85 68 43 53 92 115 121 112 90 67 67 81 78 69 65 57 49 52 58 67 69 65 61 61 60 56 53 53 51 51 57 56 49 45 48 55 65 73 78 79 77 77 75 73 73 70 66 65 63 60 61 62 64 66 67 74 84 84 93 121 147 181 203 209 210 218 240 260 279
99 107 118 97 111 154 325 10 48 74 117 194 356 357 5 33 69 81 70 45 64 97 101 100 103 106 105 100 97 98 94 84 71 57 49 48 55 69 71 65 61 61 59 60 63 59 58 63 62 56 51 47 49 60 70 77 79 78 74 72 69 67 65 62 60 58 58 58 57 58 59 60 63 63 60 60 61 55 44 15 297 267 267 278 279 280
128 118 109 105 111 122 79 60 98 170 273 326 357 6 19 24 36 61 59 30 29 86 106 107 109 116 119 117 111 109 107 95 77 57 47 48 50 59 69 70 71 70 65 67 70 66 62 63 64 64 61 55 53 57 63 70 76 75 71 68 65 62 60 58 54 51 52 51 50 50 51 53 55 53 51 53 53 50 47 40 24 7 347 311 290 278
116 118 102 98 98 110 109 82 81 100 324 344 357 356 20 9 312 40 86 36 6 43 110 121 123 127 126 122 124 128 118 95 76 52 38 47 50 57 66 69 75 79 79 77 76 72 68 68 72 73 70 67 64 64 65 69 72 71 66 63 60 57 54 52 48 45 43 42 42 42 42 43 46 44 42 43 43 41 40 41 36 27 18 356 324 311
63 101 127 122 79 85 105 95 85 137 208 263 284 286 270 230 239 202 108 46 18 96 131 133 132 137 138 136 150 160 126 86 76 62 51 69 77 81 78 72 71 80 87 89 90 85 77 73 75 74 71 70 69 67 68 69 69 67 62 58 56 54 51 46 43 41 39 36 34 34 35 35 36 35 33 32 30 27 24 25 25 19 14 5 349 339
42 47 88 96 69 59 98 109 128 175 204 241 267 278 271 251 242 148 84 347 177 146 150 143 139 147 153 153 167 179 135 100 112 171 156 124 118 103 85 66 58 64 77 88 91 87 80 74 72 69 67 66 65 64 65 66 65 64 59 55 54 52 49 46 44 43 41 38 33 31 31 31 30 30 28 24 21 17 13 11 8 2 358 354 347 339
31 25 42 69 72 71 88 99 106 126 232 263 278 287 286 278 256 119 129 245 169 150 163 155 147 155 165 165 172 173 119 128 144 153 148 142 124 96 85 69 56 60 72 82 83 80 75 69 65 63 62 61 62 64 68 68 66 63 59 55 53 49 46 46 46 46 45 41 36 31 28 26 26 25 24 19 14 11 7 3 359 354 350 347 344 339
20 20 44 73 70 63 86 102 106 204 274 298 298 291 296 310 74 157 213 227 150 143 155 155 155 162 165 158 145 94 88 117 130 137 142 140 125 97 87 78 69 69 76 85 85 80 74 67 63 62 60 60 61 64 67 68 65 61 58 55 53 49 46 45 43 43 42 40 37 33 28 26 24 20 18 13 7 3 0 358 355 353 349 344 341 338
16 11 22 52 38 31 87 92 72 208 323 332 314 300 318 30 172 204 238 163 124 135 136 137 156 156 129 110 109 107 105 111 118 125 128 125 119 107 92 82 75 72 76 83 84 82 78 72 68 66 62 60 61 60 61 64 62 58 55 52 49 46 44 42 39 38 38 37 36 34 30 27 24 20 17 12 8 6 2 356 353 351 348 345 342 341
60 54 27 24 18 38 67 56 58 183 319 330 323 324 10 70 176 172 75 62 84 108 111 103 108 118 113 107 105 106 106 105 108 112 111 106 105 101 93 85 78 74 77 83 84 85 83 78 72 70 65 61 60 58 59 63 62 58 54 50 44 38 35 33 32 32 32 32 33 33 31 30 28 27 24 18 16 17 14 8 3 359 357 354 350 348
13 88 126 296 341 67 90 65 69 244 309 333 358 70 36 356 131 114 93 75 66 78 93 90 84 97 110 112 108 104 105 106 108 109 104 98 100 98 92 88 84 81 84 90 92 93 92 87 80 77 72 67 64 63 62 64 63 60 55 47 35 25 22 22 23 26 28 29 30 31 33 34 33 31 28 21 17 16 13 10 6 3 3 2 360 358
359 107 116 85 39 69 101 122 152 233 328 6 42 69 57 48 68 86 91 86 72 69 84 92 90 87 94 104 104 100 100 104 107 107 104 101 99 98 95 93 89 85 89 95 97 97 96 92 89 84 78 73 73 72 66 62 60 58 51 39 23 16 14 12 16 27 33 34 35 35 35 32 27 22 19 15 12 9 6 3 359 358 359 357 357 357
100 102 95 92 92 80 74 84 108 72 47 46 48 51 56 57 61 74 83 84 80 77 79 87 92 89 88 94 97 97 101 104 102 102 107 106 100 102 107 104 94 90 94 97 98 97 96 95 93 88 80 75 76 76 69 58 53 51 44 32 24 21 19 19 26 34 37 37 37 34 28 21 18 15 12 10 8 4 2 2 360 359 358 356 353 352
340 54 69 90 117 93 79 102 122 95 84 77 70 64 62 61 60 65 76 82 82 82 84 87 89 88 86 88 93 98 102 107 106 103 105 108 109 117 118 108 95 96 99 97 94 92 91 91 89 81 73 74 76 73 65 55 49 48 42 35 32 29 27 31 37 36 35 33 29 24 18 14 11 8 4 2 2 360 358 358 357 355 354 353 350 348
352 58 76 82 66 66 101 140 130 94 76 68 75 80 78 77 74 67 71 81 82 80 84 90 94 96 93 88 94 97 91 96 110 112 109 108 112 121 125 114 106 107 108 102 95 92 87 86 86 77 69 73 72 60 53 51 47 41 36 34 32 28 28 34 35 32 30 27 20 15 11 6 2 360 358 357 357 356 354 353 352 348 346 345 343 341
33 62 83 105 88 77 93 118 109 76 42 30 64 93 96 97 95 85 76 78 80 81 81 80 84 97 104 98 91 87 82 83 98 104 103 95 84 90 114 129 128 123 120 114 106 100 94 88 86 78 68 66 60 47 45 52 47 34 31 32 28 23 24 25 23 21 21 16 11 7 2 358 357 356 357 355 353 351 349 347 346 343 337 334 333 332
69 84 92 109 116 137 176 166 145 114 92 127 146 129 113 107 108 105 98 92 91 93 92 85 82 89 98 100 96 90 85 81 84 85 81 67 61 61 71 112 136 137 131 125 119 112 110 104 94 85 73 59 44 34 34 47 44 32 29 31 27 21 18 18 16 15 12 6 3 358 353 353 355 354 353 352 349 345 340 337 338 337 332 330 329 326
109 147 151 135 149 196 192 173 152 122 135 182 181 158 148 135 119 115 117 116 113 111 107 102 97 89 83 87 95 98 95 83 81 80 69 54 54 54 55 67 101 140 143 136 129 126 123 114 103 91 72 49 25 20 24 38 39 30 30 31 24 15 10 8 4 1 0 358 355 353 354 355 354 351 348 346 344 342 339 336 335 334 333 332 330 325